[Iaude] MPEC M10: 2024 LX5 [a=2.14,e=0.51,i=5.0,H=24.3]
    mpec at cfa.harvard.edu 
    mpec at cfa.harvard.edu
       
    Mon Jun 17 06:27:01 EDT 2024
    
    
  
M.P.E.C. 2024-M10                                 Issued 2024 June 17, 10:25 UT
     The Minor Planet Electronic Circulars contain information on unusual
         minor planets, routine data on comets and natural satellites,
         and occasional editorial announcements.  They are published
    on behalf of Division F of the International Astronomical Union by the
          Minor Planet Center, Smithsonian Astrophysical Observatory,
                          Cambridge, MA 02138, U.S.A.
			  
             Prepared using the Tamkin Foundation Computer Network
                              MPC at CFA.HARVARD.EDU
            URL https://www.minorplanetcenter.net/    ISSN 1523-6714
                                    2024 LX5                                    
Observations:
     K24L05X* C2024 06 14.39403916 48 37.332-17 31 25.97         21.01wXEM010F52
     K24L05X  C2024 06 14.40196216 48 37.938-17 31 05.61         21.05wXEM010F52
     K24L05X  C2024 06 14.40988816 48 38.543-17 30 45.09         21.11wXEM010F52
     K24L05X  C2024 06 14.41779516 48 39.143-17 30 24.54         21.19wXEM010F52
     K24L05X  C2024 06 14.46763716 48 42.980-17 28 14.02         20.82GVEM010F51
     K24L05X  C2024 06 14.46828416 48 43.038-17 28 12.08         20.65GVEM010F51
     K24L05X  C2024 06 15.38276416 50 20.559-16 47 30.22         20.99GVEM010F52
     K24L05X 1C2024 06 15.45056616 50 26.167-16 44 21.81         21.01GVEM010T12
     K24L05X 1C2024 06 15.45470616 50 26.517-16 44 10.16         21.02GVEM010T12
     K24L05X KC2024 06 16.23871216 51 56.06 -16 07 27.1          20.9 GXEM010858
     K24L05X KC2024 06 16.25222716 51 57.30 -16 06 47.7          21.3 GXEM010858
     K24L05X 1C2024 06 16.40683016 52 14.805-15 59 05.84         20.51GVEM010T12
     K24L05X 1C2024 06 16.40777016 52 14.893-15 59 03.04         20.57GVEM010T12
     K24L05X KC2024 06 17.19677 16 53 51.66 -15 19 46.0                VEM010291
     K24L05X KC2024 06 17.20377 16 53 52.39 -15 19 24.5                VEM010291
     K24L05X KC2024 06 17.21074 16 53 53.12 -15 19 03.6                VEM010291
Observer details:
291 LPL/Spacewatch II.  Observer T. H. Bressi.  1.8-m f/2.7 reflector + CCD.
858 Tebbutt Observatory, Edgewood.  Observer F. B. Zoltowski.  0.51-m f/8.1
    Schmidt-Cassegrain + CCD.
F51 Pan-STARRS 1, Haleakala.  Observers J. Herman, T. Lowe, P. Minguez, A.
    Schultz, I. Smith.  Measurers K. Chambers, T. de Boer, J. Fairlamb, H.
    Gao, M. Huber, C.-C. Lin, E. Magnier, Y. Ramanjooloo, R. Wainscoat, R.
    Weryk.  1.8-m Ritchey-Chretien + CCD.
F52 Pan-STARRS 2, Haleakala.  Observers J. Herman, T. Lowe, P. Minguez, A.
    Schultz, I. Smith.  Measurers K. Chambers, T. de Boer, J. Fairlamb, H.
    Gao, M. Huber, C.-C. Lin, E. Magnier, Y. Ramanjooloo, R. Wainscoat, R.
    Weryk.  1.8-m Ritchey-Chretien + CCD.
T12 University of Hawaii 88-inch telescope, Maunakea.  Observers Y.
    Ramanjooloo, J. Fairlamb, L. Benavitz, K. Toguchi-Tani.  Measurers R.
    Weryk, Y. Ramanjooloo, J. Fairlamb, R. Wainscoat.  2.24-m f/10.1 reflector
    + CCD.
Orbital elements:
2024 LX5                                                 Earth MOID = 0.0671 AU
Epoch 2024 Mar. 31.0 TT = JDT 2460400.5                 Veres                   
M 322.52124              (2000.0)            P               Q                  
n   0.31519343     Peri.   53.21155     +0.61585550     +0.78328856             
a   2.1383787      Node   255.01977     -0.74791202     +0.54742353             
e   0.5130889      Incl.    5.03258     -0.24768853     +0.29459552             
P   3.13           H   24.31          G   0.15           U   8                  
Residuals in seconds of arc
240614 F52  0.0   0.1+    240615 F52  0.1-  0.3-    240616 T12  0.0   0.0
240614 F52  0.0   0.0     240615 T12  0.0   0.0     240617 291  0.2-  0.1+
240614 F52  0.0   0.1-    240615 T12  0.0   0.1+    240617 291  0.0   0.4+
240614 F52  0.0   0.0     240616 858  0.0   0.1-    240617 291  0.3+  0.1+
240614 F51  0.1-  0.1-    240616 858  0.2-  0.3+
240614 F51  0.0   0.1+    240616 T12  0.0   0.0
Ephemeris:
2024 LX5                 a,e,i = 2.14, 0.51, 5                   q = 1.0412
Date    TT    R. A. (2000) Decl.     Delta      r    Elong.  Phase     V
2024 05 18    16 26 18.4 -27 11 27   0.3183  1.3235   166.9    10.0    23.1
...
2024 06 02    16 34 48.3 -23 49 26   0.2159  1.2299   177.9     1.7    21.6
...
2024 06 10    16 42 19.9 -20 17 28   0.1708  1.1847   172.3     6.6    21.3
...
2024 06 16    16 51 28.2 -16 18 07   0.1411  1.1537   166.9    11.5    21.1
2024 06 17    16 53 25.6 -15 29 04   0.1365  1.1488   166.0    12.3    21.0
2024 06 18    16 55 32.1 -14 36 52   0.1320  1.1440   165.1    13.2    21.0
...
2024 06 24    17 12 05.4 -08 03 24   0.1071  1.1170   159.1    19.0    20.7
...
2024 07 02    17 49 35.5 +05 41 15   0.08112 1.0865   148.3    29.5    20.3
...
2024 07 17    20 30 23.0 +41 55 07   0.07094 1.0494   116.0    60.5    20.8
M. P. C. Staff               (C) Copyright 2024 MPC           M.P.E.C. 2024-M10
    
    
More information about the Iaude
mailing list